CZ-6A DEB

Satellite information

Favourite Embed

Satellite Type and Status

DEBRISIN ORBIT

Key statistics

Satellite CZ-6A DEB at a glance.

Uptime

273

Days in orbit

Revolutions

≈ 14.5

Per day

Orbit

LEO

Low Earth Orbit

Inclination

89.1

Latest

Satellite identification and parameters

Extended collection of information and parameters for CZ-6A DEB.

Object identification

Identified? True

Debris? True

Object name: CZ-6A DEB

International designator: 2024-140XV

Object number (NORAD): 61404

Object ID (CCSDS): 61404

Country: PEOPLES REPUBLIC OF CHINA (PRC)

Current information (Y/N): Y

RCS size: SMALL

Orbital parameters

Period: 99.087 minutes

Inclination: 89.1017 deg

SMA: 7093.134 km

Apoapsis: 790.808 km

Periapsis: 639.19 km

RAAN: 322.3 deg

Eccentricy: 0.0106877

Argument of periapsis: 224.1991 deg

Mean anomaly: 135.0644 deg

Mean motion: 14.53267355 rev/day

Mean motion (dot): 0.00002574 rev/day2

B* drag term: 0.00057177 1/REarth

Two-line elements (TLE)

Creation date: May 6, 2025, 3:54 a.m.

Reference frame: TEME

Reference center: EARTH

Epoch: May 5, 2025, 6:50 p.m. UTC

TLE line 0: 0 CZ-6A DEB

TLE line 1: 1 61404U 24140XV 25125.78498611 .00002574 00000-0 57177-3 0 9993

TLE line 2: 2 61404 89.1017 322.3000 0106877 224.1991 135.0644 14.53267355 34663

Live tracking on map

Real-time ground track for satellite CZ-6A DEB.

In-orbit conjunctions

A list of the most updated potential collisions computed for object CZ-6A DEB.

Target Orbit TCA Probability of collision Miss distance Type
FENGYUN 1C DEB SSO 2025-01-10 12:52:50 0.001712869 103.0 (m) DEBRIS
CZ-6A DEB LEO 2024-12-24 15:05:51 0.0005003374 406.0 (m) DEBRIS
CZ-6A DEB LEO 2024-11-12 22:40:57 0.0006761755 470.0 (m) DEBRIS
COSMOS 2251 DEB LEO 2024-11-02 02:12:54 0.0001687975 772.0 (m) DEBRIS
DELTA 1 DEB MEO 2024-10-19 11:37:11 0.0002895409 235.0 (m) DEBRIS

Associated space launch

18 Low Earth Orbit communication satellites with Ku, Q and V band payloads for the G60 constellation operated by Shanghai Spacecom Satellite Technology (SSST) with funding backed by the Shanghai local government. Initial constellation will consist of 1296 satellites by 2027 with long term plans to expand it to 12000 satellites.

CZ-6A DEB was lifted into orbit during the mission ‘Long March 6A | G60 Polar Group 01’, on board a Long March 6A space rocket.

The launch took place on Aug. 6, 2024, 6:42 a.m. from Launch Complex 9A.

For more information about the launch, click the button.

Launch to space Long March 6A | G60 Polar Group 01
Long March 6A | G60 Polar Group 01

Agency: N/A

Status: Launch Successful

Launch date: Aug. 6, 2024, 6:42 a.m. UTC

Rocket: Long March 6A

Launch pad: Launch Complex 9A

Location: Taiyuan Satellite Launch Center, People's Republic of China

...

Latest news about this satellite

News about space launch
Brightness of first Chinese broadband constellation satellites alarms astronomers

The first satellites of a Chinese broadband constellation are significantly brighter than those of Western systems, posing a new challenge for astronomers.

News about space launch
Chinese rocket stage breaks up into cloud of more than 700 pieces of space debris

HELSINKI — A Chinese Long March 6A rocket’s upper stage has fragmented into a cloud of over 700 pieces of space debris, adding to concerns about long-term orbital safety. China […]

News about space launch
China's Thousand Sails Megaconstellation Kicks Off with Dangerous Debris Field

China's Thousand Sails Megaconstellation Kicks Off with Dangerous Debris Field


Newsletter sign-up

Weekly statistics, charts and insights to help you stay on top of the space industry.